This is the latest recevied weather packets stored in our database for station/object KI4NG. If no packets are shown the sender has not sent any weather packets the latest 10 day(s).
| Time | Temp. | Humidity | Pressure | Rain* | Wind** | Luminosity | Snow |
|---|---|---|---|---|---|---|---|
| 1777994092 | 18.89° C | 67% | 1015.3 hPa | 0 mm | - | 254 W/m² | - |
| 1777993789 | 18.89° C | 65% | 1015.3 hPa | 0 mm | - | 275 W/m² | - |
| 1777993486 | 18.89° C | 64% | 1015.2 hPa | 0 mm | - | 283 W/m² | - |
| 1777993185 | 18.89° C | 64% | 1015.1 hPa | 0 mm | - | 303 W/m² | - |
| 1777992884 | 18.89° C | 64% | 1015 hPa | 0 mm | - | 336 W/m² | - |
| 1777992582 | 18.89° C | 67% | 1015 hPa | 0 mm | - | 305 W/m² | - |
| 1777992279 | 18.33° C | 64% | 1015.2 hPa | 0 mm | - | 273 W/m² | - |
| 1777991976 | 18.33° C | 64% | 1015.1 hPa | 0 mm | - | 267 W/m² | - |
| 1777991674 | 18.89° C | 64% | 1015 hPa | 0 mm | - | 289 W/m² | - |
| 1777991371 | 18.89° C | 64% | 1015 hPa | 0 mm | - | 340 W/m² | - |
| 1777991068 | 18.33° C | 68% | 1015 hPa | 0 mm | - | 333 W/m² | - |
| 1777990766 | 18.33° C | 65% | 1014.8 hPa | 0 mm | - | 304 W/m² | - |
| 1777990462 | 17.78° C | 65% | 1014.9 hPa | 0 mm | - | 252 W/m² | - |
| 1777989856 | 17.78° C | 66% | 1015 hPa | 0 mm | - | 175 W/m² | - |
| 1777989553 | 17.78° C | 66% | 1015 hPa | 0 mm | - | 200 W/m² | - |
| 1777989250 | 17.78° C | 65% | 1014.7 hPa | 0 mm | - | 224 W/m² | - |
| 1777988946 | 17.78° C | 68% | 1014.8 hPa | 0 mm | - | 205 W/m² | - |
| 1777988642 | 17.78° C | 69% | 1014.9 hPa | 0 mm | - | 180 W/m² | - |
| 1777988339 | 17.78° C | 68% | 1015.1 hPa | 0 mm | - | 172 W/m² | - |
| 1777988036 | 17.78° C | 64% | 1014.8 hPa | 0 mm | - | 153 W/m² | - |
| 1777987731 | 17.22° C | 64% | 1014.9 hPa | 0 mm | - | 163 W/m² | - |
| 1777987429 | 17.22° C | 66% | 1014.7 hPa | 0 mm | - | 156 W/m² | - |
| 1777987126 | 17.22° C | 66% | 1014.9 hPa | 0 mm | - | 157 W/m² | - |
| 1777986823 | 17.22° C | 69% | 1014.7 hPa | 0 mm | - | 205 W/m² | - |
| 1777986521 | 17.22° C | 66% | 1015 hPa | 0 mm | - | 248 W/m² | - |
* Rain latest hour (hover to see other rain measurements)
** Current wind speed in m/s (hover to see current wind gust speed)